Regional Weather Roundup
Issued by NWS Little Rock, AR

Home | Current Version | Previous Version | Graphics & Text | Print | Product List | Glossary On
Versions: 1 2 3 4 5 6 7 8 9 10 11 12 13 14 15 16 17 18 19 20 21 22 23 24 25 26 27 28 29 30 31 32 33 34 35 36 37 38 39 40 41 42 43 44 45 46 47 48 49
000
ASUS44 KLZK 031805
RWRLZK

WEATHER ROUNDUP FOR ARKANSAS
NATIONAL WEATHER SERVICE LITTLE ROCK AR
100 PM CDT SUN MAY 03 2015

NOTE: "FAIR" INDICATES FEW OR NO CLOUDS BELOW 12,000 FEET WITH NO
SIGNIFICANT WEATHER AND/OR OBSTRUCTIONS TO VISIBILITY.

ARZ001-003-010-029-031900-
NORTHWEST ARKANSAS

CITY           SKY/WX    TMP DP  RH WIND       PRES   REMARKS
FAYETTEVILLE   MOSUNNY   77  60  55 SW14G23   30.04F
6HR MIN TEMP:  54; 6HR MAX TEMP:  77;

FORT SMITH     SUNNY     80  56  43 S10       30.03S
6HR MIN TEMP:  57; 6HR MAX TEMP:  81;

HARRISON       MOSUNNY   79  54  41 S8G20     30.04F
6HR MIN TEMP:  53; 6HR MAX TEMP:  79;

BENTONVILLE    MOSUNNY   73  54  49 SW14G24   30.04F
6HR MIN TEMP:  57; 6HR MAX TEMP:  75;

ROGERS         MOSUNNY   75  56  51 S16       30.04F
6HR MIN TEMP:  57; 6HR MAX TEMP:  76;

SILOAM SPGS    MOSUNNY   77  55  47 SW21      30.04F
6HR MIN TEMP:  59; 6HR MAX TEMP:  77;

HIGHFILL       MOSUNNY   77  57  50 SW13      30.02F
6HR MIN TEMP:  54; 6HR MAX TEMP:  78;

SPRINGDALE     MOSUNNY   75  55  50 SW12G23   30.06S
$$

ARZ004-005-016-031900-
NORTH CENTRAL ARKANSAS

CITY           SKY/WX    TMP DP  RH WIND       PRES   REMARKS
BATESVILLE     MOSUNNY   79  54  41 S8G17     30.06F
6HR MIN TEMP:  57; 6HR MAX TEMP:  79;

FLIPPIN        SUNNY     81  54  39 S10G18    30.02S
6HR MIN TEMP:  54; 6HR MAX TEMP:  81;

MTN HOME       SUNNY     79  54  41 VRB7      30.03F
6HR MIN TEMP:  57; 6HR MAX TEMP:  79;

$$

ARZ040-041-031900-
WEST CENTRAL ARKANSAS

CITY           SKY/WX    TMP DP  RH WIND       PRES   REMARKS
MENA           PTSUNNY   79  57  47 SW10      30.07S
MOUNT IDA      MOSUNNY   78  56  46 VRB6      30.04F
6HR MIN TEMP:  50; 6HR MAX TEMP:  80;

$$

ARZ009-017-025-026-028-031900-
NORTHEAST ARKANSAS

CITY           SKY/WX    TMP DP  RH WIND       PRES   REMARKS
CORNING          N/A     81  48  32 SW13      30.07F
JONESBORO      MOSUNNY   78  49  35 S15       30.07F
6HR MIN TEMP:  48; 6HR MAX TEMP:  78;

NEWPORT        MOSUNNY   80  51  36 S8G18     30.08F
6HR MIN TEMP:  54; 6HR MAX TEMP:  81;

WALNUT RIDGE   MOSUNNY   81  48  32 S16       30.06F
6HR MIN TEMP:  54; 6HR MAX TEMP:  81;

BLYTHEVILLE    PTSUNNY   79  45  29 SW10      30.09F
6HR MIN TEMP:  58; 6HR MAX TEMP:  79;

$$

ARZ022-023-033-042-044-031900-
CENTRAL ARKANSAS

CITY           SKY/WX    TMP DP  RH WIND       PRES   REMARKS
LITTLE ROCK    MOSUNNY   81  53  37 SW8G16    30.06F
6HR MIN TEMP:  54; 6HR MAX TEMP:  82;

N LITTLE ROCK  MOSUNNY   79  59  49 SW9G17    30.06
6HR MIN TEMP:  60; 6HR MAX TEMP:  80;

JACKSONVILLE   MOSUNNY   81  58  44 S10       30.05F
6HR MIN TEMP:  49; 6HR MAX TEMP:  81;

SEARCY         SUNNY     81  56  42 VRB6      30.07F
6HR MIN TEMP:  49; 6HR MAX TEMP:  81;

HOT SPRINGS    MOSUNNY   80  56  43 SW10      30.06F
6HR MIN TEMP:  54; 6HR MAX TEMP:  81;

RUSSELLVILLE   SUNNY     80  60  50 VRB7      30.04F
6HR MIN TEMP:  52; 6HR MAX TEMP:  80;

CLINTON        FAIR      79  59  50 SW8       30.06F
$$

ARZ036-031900-
EAST ARKANSAS

CITY           SKY/WX    TMP DP  RH WIND       PRES   REMARKS
WEST MEMPHIS   MOSUNNY   79  47  32 S12       30.08F
6HR MIN TEMP:  53; 6HR MAX TEMP:  79;

$$

ARZ050-053-066-070-073-031900-
SOUTHWEST ARKANSAS

CITY           SKY/WX    TMP DP  RH WIND       PRES   REMARKS
ARKADELPHIA    FAIR      83  62  48 SW6       30.07S
6HR MIN TEMP:  54; 6HR MAX TEMP:  83;

CAMDEN         PTSUNNY   81  57  44 NE3       30.06F
TEXARKANA      MOSUNNY   79  56  45 SW9       30.06F
6HR MIN TEMP:  62; 6HR MAX TEMP:  80;

EL DORADO      MOSUNNY   81  56  42 SW6       30.07F
6HR MIN TEMP:  57; 6HR MAX TEMP:  81;

DE QUEEN       SUNNY     80  57  45 SW8       30.04S
6HR MIN TEMP:  54; 6HR MAX TEMP:  80;

$$

ARZ056-057-069-031900-
SOUTHEAST ARKANSAS

CITY           SKY/WX    TMP DP  RH WIND       PRES   REMARKS
PINE BLUFF     MOSUNNY   80  56  43 S7        30.07S
6HR MIN TEMP:  54; 6HR MAX TEMP:  82;

STUTTGART      MOSUNNY   82  55  39 SW10G16   30.08F
6HR MIN TEMP:  57; 6HR MAX TEMP:  82;

MONTICELLO     PTSUNNY   82  56  40 SW7       30.07F
6HR MIN TEMP:  60; 6HR MAX TEMP:  82;


$$





USA.gov is the U.S. government's official web portal to all federal, state and local government web resources and services.